Sarasota, FL

6:51 AM EDT on September 20, 2019 (GMT -0400)
Sarasota-bradenton

Weather History for KSRQ - July, 2019

Change the Weather History Date:

Sunday, July 21, 2019

  Actual Average Record
Temperature  
Mean Temperature 82 °F 82 °F  
Max Temperature 90 °F 90 °F 98 °F (1918)
Min Temperature 74 °F 75 °F 63 °F (1995)
Degree Days  
Heating Degree Days 0 0  
Month to date heating degree days 0 0  
Since 1 June heating degree days 0 0  
Since 1 July heating degree days 0 0  
Cooling Degree Days 17 18  
Month to date cooling degree days 384 362  
Year to date cooling degree days 2100 1585  
Since 1 June cooling degree days 943 834  
Growing Degree Days 32 (Base 50)    
Moisture  
Dew Point 73 °F    
Average Humidity 84    
Maximum Humidity 94    
Minimum Humidity 64    
Precipitation  
Precipitation 0.11 in 0.24 in 4.00 in (1919)
Month to date precipitation 9.91 5.39  
Year to date precipitation 24.52 26.60  
Sea Level Pressure  
Sea Level Pressure 30.03 in    
Wind  
Wind Speed 7 mph (ESE)    
Max Wind Speed 21 mph    
Max Gust Speed 26 mph    
Visibility 9 miles    
Events Rain , Thunderstorm    
T = Trace of Precipitation, MM = Missing Value Source: NWS Daily Summary

Daily Weather History Graph

Daily Weather History Graph

Search for Another Location

Airport or City:

Astronomy

Jul. 21, 2019 Rise Set
Actual Time 6:47 AM EDT 8:25 PM EDT
Civil Twilight 6:22 AM EDT 8:50 PM EDT
Nautical Twilight 5:51 AM EDT 9:21 PM EDT
Astronomical Twilight 5:18 AM EDT 9:53 PM EDT
Moon 11:40 PM EDT (7/21) 10:48 AM EDT (7/21)
Length of Visible Light 14h 28m
Length of Day
13h 37m
Waning Gibbous, 80% of the Moon is Illuminated
Jul 21
Waning Gibbous
Jul 24
Last Quarter
Jul 31
New
Aug 7
First Quarter
Aug 15
Full

Hourly Weather History & Observations

Time (EDT) Temp. Heat Index Dew Point Humidity Pressure Visibility Wind Dir Wind Speed Gust Speed Precip Events Conditions
12:53 AM 75.0 °F - 71.1 °F 87% 30.04 in 10.0 mi ESE 4.6 mph - N/A   Clear
1:53 AM 73.9 °F - 71.1 °F 91% 30.03 in 10.0 mi East 6.9 mph - N/A   Clear
2:53 AM 73.9 °F - 72.0 °F 93% 30.02 in 10.0 mi East 5.8 mph - N/A   Clear
3:53 AM 75.0 °F - 72.0 °F 90% 30.01 in 10.0 mi East 5.8 mph - N/A   Clear
4:53 AM 75.0 °F - 73.0 °F 94% 30.01 in 10.0 mi East 8.1 mph - N/A   Clear
5:53 AM 75.0 °F - 73.0 °F 94% 30.01 in 10.0 mi ENE 3.5 mph - N/A   Clear
6:53 AM 75.0 °F - 73.0 °F 94% 30.02 in 10.0 mi ENE 3.5 mph - N/A   Clear
7:53 AM 77.0 °F - 73.9 °F 90% 30.04 in 10.0 mi East 4.6 mph - N/A   Clear
8:53 AM 81.0 °F 86.7 °F 75.0 °F 82% 30.04 in 10.0 mi ESE 8.1 mph - N/A   Clear
9:53 AM 84.0 °F 92.6 °F 75.9 °F 76% 30.04 in 10.0 mi ESE 6.9 mph - N/A   Clear
10:53 AM 84.9 °F 93.3 °F 75.0 °F 72% 30.05 in 10.0 mi SSE 6.9 mph - N/A   Clear
11:53 AM 87.1 °F 96.3 °F 75.0 °F 67% 30.06 in 10.0 mi SE 6.9 mph - N/A   Scattered Clouds
12:53 PM 87.1 °F 96.3 °F 75.0 °F 67% 30.05 in 10.0 mi WSW 9.2 mph - N/A   Overcast
1:53 PM 87.1 °F 93.6 °F 72.0 °F 61% 30.04 in 10.0 mi WNW 6.9 mph - 0.00 in Rain Rain
2:53 PM 89.1 °F 100.2 °F 75.9 °F 65% 30.02 in 10.0 mi WSW 10.4 mph - 0.00 in   Scattered Clouds
3:53 PM 90.0 °F 101.3 °F 75.9 °F 63% 30.00 in 10.0 mi WSW 10.4 mph - N/A Thunderstorm Clear
4:53 PM 75.9 °F - 72.0 °F 87% 30.05 in 2.5 mi East 11.5 mph 20.7 mph 0.08 in Rain , Thunderstorm Heavy Rain
5:08 PM 75.0 °F - 71.1 °F 87% 30.05 in 3.0 mi East 16.1 mph 20.7 mph 0.02 in Rain , Thunderstorm Light Rain
5:33 PM 73.9 °F - 72.0 °F 93% 30.02 in 8.0 mi ENE 4.6 mph - 0.03 in Rain Light Rain
5:53 PM 75.0 °F - 73.0 °F 94% 30.02 in 8.0 mi SE 9.2 mph - 0.03 in   Partly Cloudy
6:53 PM 77.0 °F - 72.0 °F 84% 30.03 in 10.0 mi ENE 8.1 mph - N/A   Clear
7:53 PM 77.0 °F - 72.0 °F 84% 30.04 in 10.0 mi East 5.8 mph - N/A   Clear
8:53 PM 75.0 °F - 72.0 °F 90% 30.04 in 10.0 mi ESE 5.8 mph - N/A   Clear
9:53 PM 75.0 °F - 72.0 °F 90% 30.04 in 10.0 mi SSE 4.6 mph - N/A   Clear
10:53 PM 75.0 °F - 72.0 °F 90% 30.03 in 10.0 mi ESE 4.6 mph - N/A   Clear
11:53 PM 73.9 °F - 72.0 °F 93% 30.03 in 10.0 mi East 3.5 mph - N/A   Clear